Weather History for Cheraw, SC

Change the Weather History Date:

Tuesday, January 8, 2013

  Actual Average (KFLO) Record (KFLO)
Temperature  
Mean Temperature 46 °F 44 °F  
Max Temperature 59 °F 55 °F 76 °F (2008)
Min Temperature 32 °F 34 °F 15 °F (2014)
Degree Days  
Heating Degree Days 20 21  
Month to date heating degree days 164  
Since 1 July heating degree days 1143  
Cooling Degree Days 0 0  
Month to date cooling degree days 0  
Year to date cooling degree days 0  
Moisture  
Dew Point 39 °F    
Average Humidity 76    
Maximum Humidity 100    
Minimum Humidity 48    
Precipitation  
Precipitation 0.00 in 0.11 in 1.42 in (1993)
Month to date precipitation 0.85  
Year to date precipitation 0.85  
Sea Level Pressure  
Sea Level Pressure 30.39 in    
Wind  
Wind Speed 4 mph (NE)    
Max Wind Speed 13 mph    
Max Gust Speed 17 mph    
Visibility 10 miles    
Events      
T = Trace of Precipitation, MM = Missing Value Source: NWS Daily Summary

Daily Weather History Graph

Daily Weather History Graph

Search for Another Location

Airport:

Trip Planner

Search our weather history database for the weather conditions in past years. The results will help you decide how hot, cold, wet, or windy it might be!

Date:

Astronomy

Jan. 08, 2013 Rise Set
Actual Time 7:27 AM EST 5:25 PM EST
Civil Twilight 6:59 AM EST 5:53 PM EST
Nautical Twilight 6:28 AM EST 6:24 PM EST
Astronomical Twilight 5:58 AM EST 6:55 PM EST
Moon 3:59 AM EST (1/8) 2:26 PM EST (1/8)
Length of Visible Light 10h 53m
Length of Day
9h 58m
Waning Crescent, 14% of the Moon is Illuminated
Jan 8
Waning Crescent
Jan 11
New
Jan 18
First Quarter
Jan 26
Full
Feb 3
Last Quarter

Hourly Weather History & Observations

Time (EST) Temp. Windchill Dew Point Humidity Pressure Visibility Wind Dir Wind Speed Gust Speed Precip Events Conditions
12:15 AM 33.8 °F - 32.0 °F 93% 30.41 in 10.0 mi Calm Calm - N/A   Clear
12:35 AM 33.8 °F - 32.0 °F 93% 30.41 in 10.0 mi Calm Calm - N/A   Clear
12:55 AM 33.8 °F - 32.0 °F 93% 30.41 in 10.0 mi Calm Calm - N/A   Scattered Clouds
1:35 AM 33.8 °F - 32.0 °F 93% 30.41 in 10.0 mi Calm Calm - N/A   Partly Cloudy
1:55 AM 32.0 °F - 32.0 °F 100% 30.40 in 10.0 mi Calm Calm - N/A   Mostly Cloudy
2:15 AM 33.8 °F 30.8 °F 32.0 °F 93% 30.40 in 10.0 mi NE 3.5 mph - N/A   Mostly Cloudy
2:35 AM 33.8 °F - 33.8 °F 100% 30.40 in 10.0 mi Calm Calm - N/A   Mostly Cloudy
2:55 AM 35.6 °F 28.0 °F 33.8 °F 93% 30.38 in 10.0 mi NNE 10.4 mph - N/A   Mostly Cloudy
3:15 AM 35.6 °F 29.2 °F 33.8 °F 93% 30.38 in 10.0 mi NNW 8.1 mph - N/A   Mostly Cloudy
3:35 AM 37.4 °F 34.9 °F 33.8 °F 87% 30.39 in 10.0 mi NNE 3.5 mph - N/A   Overcast
3:55 AM 37.4 °F - 33.8 °F 87% 30.39 in 10.0 mi Calm Calm - N/A   Overcast
4:15 AM 37.4 °F 32.8 °F 33.8 °F 87% 30.39 in 10.0 mi NNE 5.8 mph - N/A   Overcast
4:35 AM 37.4 °F 29.3 °F 35.6 °F 93% 30.38 in 10.0 mi NE 12.7 mph - N/A   Overcast
4:55 AM 37.4 °F - 35.6 °F 93% 30.38 in 10.0 mi Calm Calm - N/A   Overcast
5:15 AM 37.4 °F 33.8 °F 33.8 °F 87% 30.38 in 10.0 mi NE 4.6 mph - N/A   Overcast
5:35 AM 37.4 °F 31.4 °F 35.6 °F 93% 30.38 in 10.0 mi NNE 8.1 mph - N/A   Overcast
5:55 AM 37.4 °F 29.3 °F 35.6 °F 93% 30.38 in 10.0 mi NE 12.7 mph - N/A   Overcast
6:15 AM 37.4 °F - 35.6 °F 93% 30.40 in 10.0 mi Calm Calm - N/A   Overcast
6:35 AM 39.2 °F 34.2 °F 35.6 °F 87% 30.40 in 10.0 mi NE 6.9 mph - N/A   Overcast
7:15 AM 39.2 °F - 35.6 °F 87% 30.41 in 10.0 mi Calm Calm - N/A   Overcast
7:35 AM 39.2 °F - 35.6 °F 87% 30.42 in 10.0 mi Calm Calm - N/A   Overcast
7:55 AM 37.4 °F 34.9 °F 35.6 °F 93% 30.43 in 10.0 mi WNW 3.5 mph - N/A   Mostly Cloudy
8:15 AM 39.2 °F - 35.6 °F 87% 30.44 in 10.0 mi Calm Calm - N/A   Overcast
8:35 AM 41.0 °F 38.0 °F 35.6 °F 81% 30.45 in 10.0 mi NW 4.6 mph - N/A   Overcast
8:55 AM 42.8 °F 38.6 °F 35.6 °F 76% 30.44 in 10.0 mi North 6.9 mph - N/A   Mostly Cloudy
9:15 AM 42.8 °F 38.0 °F 35.6 °F 76% 30.45 in 10.0 mi North 8.1 mph - N/A   Mostly Cloudy
9:35 AM 42.8 °F 37.0 °F 37.4 °F 81% 30.45 in 10.0 mi NE 10.4 mph - N/A   Mostly Cloudy
9:55 AM 44.6 °F 38.4 °F 37.4 °F 76% 30.45 in 10.0 mi NE 12.7 mph - N/A   Mostly Cloudy
10:15 AM 44.6 °F 39.7 °F 37.4 °F 76% 30.45 in 10.0 mi NE 9.2 mph - N/A   Overcast
10:35 AM 46.4 °F 41.1 °F 37.4 °F 71% 30.44 in 10.0 mi NE 11.5 mph 17.3 mph N/A   Overcast
10:55 AM 50.0 °F - 35.6 °F 58% 30.43 in 10.0 mi NE 12.7 mph - N/A   Mostly Cloudy
11:15 AM 50.0 °F - 35.6 °F 58% 30.43 in 10.0 mi NE 9.2 mph - N/A   Scattered Clouds
11:35 AM 51.8 °F - 35.6 °F 54% 30.42 in 10.0 mi NNE 8.1 mph - N/A   Mostly Cloudy
11:55 AM 53.6 °F - 35.6 °F 51% 30.41 in 10.0 mi NNE 10.4 mph - N/A   Scattered Clouds
12:15 PM 53.6 °F - 37.4 °F 54% 30.40 in 10.0 mi NE 5.8 mph - N/A   Mostly Cloudy
12:35 PM 55.4 °F - 37.4 °F 51% 30.40 in 10.0 mi NE 9.2 mph - N/A   Partly Cloudy
12:55 PM 55.4 °F - 39.2 °F 54% 30.39 in 10.0 mi NNW 6.9 mph - N/A   Mostly Cloudy
1:35 PM 57.2 °F - 39.2 °F 51% 30.37 in 10.0 mi NE 5.8 mph - N/A   Mostly Cloudy
1:55 PM 57.2 °F - 39.2 °F 51% 30.36 in 10.0 mi East 6.9 mph - N/A   Mostly Cloudy
2:15 PM 59.0 °F - 39.2 °F 48% 30.36 in 10.0 mi ENE 4.6 mph - N/A   Mostly Cloudy
2:55 PM 59.0 °F - 41.0 °F 51% 30.35 in 10.0 mi NE 8.1 mph - N/A   Overcast
3:15 PM 59.0 °F - 41.0 °F 51% 30.35 in 10.0 mi NE 4.6 mph - N/A   Overcast
3:35 PM 57.2 °F - 41.0 °F 55% 30.35 in 10.0 mi NNE 5.8 mph - N/A   Mostly Cloudy
3:55 PM 57.2 °F - 42.8 °F 59% 30.35 in 10.0 mi Calm Calm - N/A   Mostly Cloudy
4:15 PM 59.0 °F - 42.8 °F 55% 30.36 in 10.0 mi ENE 3.5 mph - N/A   Mostly Cloudy
4:35 PM 59.0 °F - 42.8 °F 55% 30.37 in 10.0 mi ESE 5.8 mph - N/A   Overcast
4:55 PM 57.2 °F - 42.8 °F 59% 30.37 in 10.0 mi ESE 4.6 mph - N/A   Overcast
5:15 PM 57.2 °F - 42.8 °F 59% 30.37 in 10.0 mi Calm Calm - N/A   Overcast
5:35 PM 55.4 °F - 46.4 °F 72% 30.36 in 10.0 mi Calm Calm - N/A   Overcast
5:55 PM 55.4 °F - 44.6 °F 67% 30.36 in 10.0 mi East 4.6 mph - N/A   Overcast
6:15 PM 55.4 °F - 42.8 °F 63% 30.36 in 10.0 mi East 8.1 mph - N/A   Overcast
6:35 PM 55.4 °F - 44.6 °F 67% 30.37 in 10.0 mi Calm Calm - N/A   Overcast
6:55 PM 53.6 °F - 44.6 °F 72% 30.38 in 10.0 mi North 3.5 mph - N/A   Overcast
7:15 PM 53.6 °F - 44.6 °F 72% 30.38 in 10.0 mi NNE 4.6 mph - N/A   Overcast
7:35 PM 53.6 °F - 44.6 °F 72% 30.38 in 10.0 mi Calm Calm - N/A   Overcast
7:55 PM 53.6 °F - 44.6 °F 72% 30.38 in 10.0 mi Calm Calm - N/A   Overcast
8:55 PM 51.8 °F - 46.4 °F 82% 30.39 in 10.0 mi Calm Calm - N/A   Mostly Cloudy
9:15 PM 50.0 °F - 44.6 °F 82% 30.39 in 10.0 mi North 4.6 mph - N/A   Mostly Cloudy
9:35 PM 50.0 °F - 44.6 °F 82% 30.40 in 10.0 mi North 4.6 mph - N/A   Overcast
9:55 PM 51.8 °F - 44.6 °F 76% 30.40 in 10.0 mi NE 3.5 mph - N/A   Overcast
10:15 PM 51.8 °F - 44.6 °F 76% 30.40 in 10.0 mi NE 3.5 mph - N/A   Overcast
10:35 PM 48.2 °F - 44.6 °F 87% 30.39 in 10.0 mi ENE 6.9 mph - N/A   Scattered Clouds
10:55 PM 48.2 °F - 44.6 °F 87% 30.40 in 10.0 mi Calm Calm - N/A   Mostly Cloudy
11:15 PM 48.2 °F - 46.4 °F 93% 30.40 in 10.0 mi NNE 5.8 mph - N/A   Overcast
11:35 PM 50.0 °F - 44.6 °F 82% 30.39 in 10.0 mi East 9.2 mph - N/A   Overcast
11:55 PM 48.2 °F - 44.6 °F 87% 30.39 in 10.0 mi Calm Calm - N/A   Mostly Cloudy